Montevideo, MN

12:48 PM CST on January 17, 2018 (GMT -0600)
Montevideo-Chippewa County

Weather History for KMVE - February, 2014

Change the Weather History Date:

Tuesday, February 18, 2014

  Actual Average Record
Temperature  
Mean Temperature 30 °F -  
Max Temperature 44 °F 29 °F 61 °F (1981)
Min Temperature 17 °F 12 °F -20 °F (1958)
Degree Days  
Heating Degree Days 34    
Moisture  
Dew Point 25 °F    
Average Humidity 76    
Maximum Humidity 93    
Minimum Humidity 53    
Precipitation  
Precipitation 0.00 in - - ()
Sea Level Pressure  
Sea Level Pressure 29.64 in    
Wind  
Wind Speed 8 mph (WNW)    
Max Wind Speed 14 mph    
Max Gust Speed 21 mph    
Visibility 10 miles    
Events      
Averages and records for this station are not official NWS values.
T = Trace of Precipitation, MM = Missing Value Source: NWS Daily Summary

Daily Weather History Graph

Daily Weather History Graph

Search for Another Location

Airport or City:

Trip Planner

Search our weather history database for the weather conditions in past years. The results will help you decide how hot, cold, wet, or windy it might be!

Date:

Astronomy

Feb. 18, 2014 Rise Set
Actual Time 7:18 AM CST 5:55 PM CST
Civil Twilight 6:48 AM CST 6:25 PM CST
Nautical Twilight 6:14 AM CST 6:59 PM CST
Astronomical Twilight 5:40 AM CST 7:33 PM CST
Moon 10:02 PM CST (2/18) 8:40 AM CST (2/18)
Length of Visible Light 11h 36m
Length of Day
10h 36m
Waning Gibbous, 87% of the Moon is Illuminated
Feb 18
Waning Gibbous
Feb 22
Last Quarter
Mar 1
New
Mar 8
First Quarter
Mar 16
Full

Hourly Weather History & Observations

Time (CST) Temp. Windchill Dew Point Humidity Pressure Visibility Wind Dir Wind Speed Gust Speed Precip Events Conditions
12:14 AM 28.4 °F 19.1 °F 23.0 °F 80% 29.65 in 10.0 mi SSW 10.4 mph - N/A   Clear
12:34 AM 28.4 °F 20.4 °F 21.2 °F 74% 29.65 in 10.0 mi SSW 8.1 mph - N/A   Clear
12:54 AM 28.4 °F 20.4 °F 21.2 °F 74% 29.63 in 10.0 mi SSW 8.1 mph - N/A   Clear
1:14 AM 28.4 °F 20.4 °F 21.2 °F 74% 29.62 in 10.0 mi SSW 8.1 mph - N/A   Clear
1:34 AM 26.6 °F 19.1 °F 21.2 °F 80% 29.61 in 10.0 mi SSW 6.9 mph - N/A   Clear
1:54 AM 28.4 °F 21.2 °F 23.0 °F 80% 29.60 in 10.0 mi SSW 6.9 mph - N/A   Clear
2:14 AM 28.4 °F 18.5 °F 23.0 °F 80% 29.59 in 10.0 mi SW 11.5 mph - N/A   Clear
2:34 AM 28.4 °F 18.5 °F 23.0 °F 80% 29.58 in 10.0 mi SW 11.5 mph - N/A   Clear
2:54 AM 30.2 °F 20.2 °F 23.0 °F 75% 29.56 in 10.0 mi SW 12.7 mph - N/A   Clear
3:14 AM 30.2 °F 20.2 °F 23.0 °F 75% 29.56 in 10.0 mi SW 12.7 mph - N/A   Clear
3:34 AM 30.2 °F 20.8 °F 21.2 °F 69% 29.55 in 10.0 mi SW 11.5 mph - N/A   Clear
3:54 AM 30.2 °F 21.9 °F 21.2 °F 69% 29.54 in 10.0 mi WSW 9.2 mph - N/A   Clear
4:14 AM 30.2 °F 24.3 °F 24.8 °F 80% 29.55 in 10.0 mi West 5.8 mph - N/A   Clear
4:34 AM 30.2 °F 22.6 °F 23.0 °F 75% 29.54 in 10.0 mi WSW 8.1 mph - N/A   Clear
4:54 AM 28.4 °F 19.7 °F 21.2 °F 74% 29.54 in 10.0 mi WSW 9.2 mph - N/A   Clear
5:14 AM 26.6 °F 18.2 °F 19.4 °F 74% 29.53 in 10.0 mi WSW 8.1 mph - N/A   Clear
5:34 AM 26.6 °F 20.0 °F 19.4 °F 74% 29.53 in 10.0 mi SW 5.8 mph - N/A   Clear
5:54 AM 26.6 °F 19.1 °F 21.2 °F 80% 29.52 in 10.0 mi SW 6.9 mph - N/A   Clear
6:14 AM 24.8 °F 16.9 °F 19.4 °F 80% 29.52 in 10.0 mi WSW 6.9 mph - N/A   Clear
6:34 AM 24.8 °F 19.1 °F 19.4 °F 80% 29.52 in 10.0 mi SW 4.6 mph - N/A   Clear
6:54 AM 19.4 °F - 15.8 °F 86% 29.53 in 10.0 mi Calm Calm - N/A   Clear
7:14 AM 19.4 °F - 15.8 °F 86% 29.52 in 10.0 mi Calm Calm - N/A   Clear
7:34 AM 17.6 °F 12.3 °F 15.8 °F 93% 29.53 in 10.0 mi SE 3.5 mph - N/A   Clear
7:54 AM 21.2 °F 16.4 °F 17.6 °F 86% 29.53 in 10.0 mi South 3.5 mph - N/A   Clear
8:14 AM 21.2 °F 16.4 °F 17.6 °F 86% 29.54 in 10.0 mi South 3.5 mph - N/A   Clear
8:34 AM 21.2 °F - 15.8 °F 80% 29.55 in 10.0 mi Calm Calm - N/A   Clear
8:54 AM 24.8 °F 17.9 °F 21.2 °F 86% 29.55 in 10.0 mi SW 5.8 mph - N/A   Clear
9:14 AM 28.4 °F 24.6 °F 23.0 °F 80% 29.55 in 10.0 mi NW 3.5 mph - N/A   Clear
9:34 AM 32.0 °F 28.7 °F 26.6 °F 80% 29.55 in 10.0 mi WNW 3.5 mph - N/A   Clear
9:54 AM 33.8 °F 29.6 °F 24.8 °F 70% 29.55 in 10.0 mi WNW 4.6 mph - N/A   Clear
10:14 AM 33.8 °F 27.0 °F 24.8 °F 70% 29.57 in 10.0 mi WNW 8.1 mph - N/A   Clear
10:34 AM 35.6 °F 29.2 °F 24.8 °F 65% 29.57 in 10.0 mi NW 8.1 mph - N/A   Clear
10:54 AM 37.4 °F 33.8 °F 24.8 °F 60% 29.58 in 10.0 mi WNW 4.6 mph - N/A   Clear
11:14 AM 39.2 °F 33.6 °F 26.6 °F 61% 29.59 in 10.0 mi NNW 8.1 mph - N/A   Clear
11:34 AM 41.0 °F 35.2 °F 26.6 °F 57% 29.59 in 10.0 mi NW 9.2 mph - N/A   Clear
11:54 AM 42.8 °F 38.0 °F 26.6 °F 53% 29.60 in 10.0 mi NNW 8.1 mph - N/A   Clear
12:14 PM 44.6 °F 38.8 °F 28.4 °F 53% 29.59 in 10.0 mi North 11.5 mph - N/A   Clear
12:34 PM 44.6 °F 38.8 °F 28.4 °F 53% 29.60 in 10.0 mi North 11.5 mph - N/A   Clear
12:54 PM 42.8 °F 36.2 °F 28.4 °F 57% 29.60 in 10.0 mi North 12.7 mph - N/A   Clear
1:14 PM 42.8 °F 37.0 °F 28.4 °F 57% 29.60 in 10.0 mi North 10.4 mph - N/A   Clear
1:34 PM 44.6 °F 38.1 °F 30.2 °F 57% 29.61 in 10.0 mi North 13.8 mph - N/A   Clear
1:54 PM 44.6 °F 38.1 °F 30.2 °F 57% 29.61 in 10.0 mi North 13.8 mph - N/A   Clear
2:14 PM 42.8 °F 36.2 °F 30.2 °F 61% 29.62 in 10.0 mi North 12.7 mph - N/A   Clear
2:34 PM 41.0 °F 33.5 °F 30.2 °F 65% 29.63 in 10.0 mi North 13.8 mph 17.3 mph N/A   Scattered Clouds
2:54 PM 41.0 °F 34.7 °F 30.2 °F 65% 29.64 in 10.0 mi North 10.4 mph - N/A   Scattered Clouds
3:14 PM 39.2 °F 32.5 °F 30.2 °F 70% 29.65 in 10.0 mi North 10.4 mph - N/A   Clear
3:34 PM 39.2 °F 32.0 °F 30.2 °F 70% 29.66 in 10.0 mi North 11.5 mph 20.7 mph N/A   Scattered Clouds
3:54 PM 39.2 °F 32.5 °F 30.2 °F 70% 29.68 in 10.0 mi NNW 10.4 mph 17.3 mph N/A   Scattered Clouds
4:14 PM 39.2 °F 33.0 °F 30.2 °F 70% 29.68 in 10.0 mi NNW 9.2 mph 16.1 mph N/A   Scattered Clouds
4:34 PM 39.2 °F 32.0 °F 30.2 °F 70% 29.68 in 10.0 mi North 11.5 mph 16.1 mph N/A   Scattered Clouds
4:54 PM 39.2 °F 32.0 °F 30.2 °F 70% 29.69 in 10.0 mi North 11.5 mph - N/A   Scattered Clouds
5:14 PM 39.2 °F 33.0 °F 30.2 °F 70% 29.71 in 10.0 mi North 9.2 mph - N/A   Scattered Clouds
5:34 PM 37.4 °F 30.8 °F 30.2 °F 75% 29.72 in 10.0 mi North 9.2 mph - N/A   Mostly Cloudy
5:54 PM 37.4 °F 32.1 °F 30.2 °F 75% 29.73 in 10.0 mi NNW 6.9 mph - N/A   Overcast
6:13 PM 35.6 °F 29.2 °F 30.2 °F 81% 29.74 in 10.0 mi NNW 8.1 mph - N/A   Mostly Cloudy
6:34 PM 35.6 °F 29.9 °F 28.4 °F 75% 29.75 in 10.0 mi NNW 6.9 mph - N/A   Scattered Clouds
6:54 PM 35.6 °F 29.9 °F 28.4 °F 75% 29.77 in 10.0 mi NW 6.9 mph - N/A   Clear
7:13 PM 33.8 °F 27.7 °F 28.4 °F 81% 29.78 in 10.0 mi NNW 6.9 mph - N/A   Scattered Clouds
7:34 PM 33.8 °F 28.6 °F 28.4 °F 81% 29.78 in 10.0 mi NW 5.8 mph - N/A   Clear
7:54 PM 32.0 °F 27.5 °F 28.4 °F 87% 29.79 in 10.0 mi NW 4.6 mph - N/A   Clear
8:13 PM 32.0 °F 25.6 °F 28.4 °F 87% 29.79 in 10.0 mi NW 6.9 mph - N/A   Clear
8:34 PM 32.0 °F 26.4 °F 28.4 °F 87% 29.80 in 10.0 mi NNW 5.8 mph - N/A   Clear
8:54 PM 30.2 °F 24.3 °F 28.4 °F 93% 29.81 in 10.0 mi NNW 5.8 mph - N/A   Clear
9:13 PM 30.2 °F 24.3 °F 28.4 °F 93% 29.81 in 10.0 mi NW 5.8 mph - N/A   Clear
9:34 PM 30.2 °F 25.4 °F 26.6 °F 86% 29.81 in 10.0 mi NW 4.6 mph - N/A   Clear
9:54 PM 30.2 °F 25.4 °F 26.6 °F 86% 29.81 in 10.0 mi NW 4.6 mph - N/A   Clear
10:13 PM 28.4 °F 23.3 °F 26.6 °F 93% 29.81 in 10.0 mi NW 4.6 mph - N/A   Clear
10:34 PM 28.4 °F 23.3 °F 26.6 °F 93% 29.81 in 10.0 mi NW 4.6 mph - N/A   Clear
10:54 PM 28.4 °F 24.6 °F 26.6 °F 93% 29.81 in 10.0 mi NW 3.5 mph - N/A   Clear
11:13 PM 28.4 °F 23.3 °F 26.6 °F 93% 29.80 in 10.0 mi WNW 4.6 mph - N/A   Clear
11:34 PM 28.4 °F 24.6 °F 26.6 °F 93% 29.80 in 10.0 mi West 3.5 mph - N/A   Clear
11:54 PM 28.4 °F 22.2 °F 26.6 °F 93% 29.80 in 10.0 mi West 5.8 mph - N/A   Clear